#timestamp,LO_Frequency,Hit,StdDev 
1502877615.8,286046997.0,Y,0.0
1502877635.6,286046999.5,P,0.1
1502877655.5,286046998.8,P,0.3
1502877675.3,286046999.3,N,0.3
1502877695.2,286046999.4,N,0.2
1502877715.0,286046997.1,Y,0.0
1502877715.9,286046997.1,P,1.1
1502877735.7,286046999.5,N,1.1
1502877755.6,286046997.0,N,1.2
1502877775.4,286046997.0,N,1.2
1502877795.3,286046997.9,N,1.1
1502877815.1,286046997.3,N,1.0
1502877835.8,286046997.4,N,1.0
1502877855.7,286046997.2,N,0.9
1502877875.5,286046999.4,N,1.0
1502877895.4,286046998.4,N,1.0
1502877915.2,286046998.7,N,0.9
1502877935.0,286046997.2,N,0.9
1502877935.9,286046997.2,Y,0.0
1502877955.8,286047000.5,P,1.3
1502877975.6,286047000.0,N,1.1
1502877995.5,286046999.7,N,1.0
1502878015.3,286047001.2,N,1.1
1502878035.1,286046998.2,N,1.2
1502878055.9,286046998.4,N,1.2
1502878075.7,286046999.0,N,1.1
1502878095.5,286046998.8,N,1.0
1502878115.4,286046998.7,N,1.0
1502878135.2,286046996.5,Y,0.0
1502878155.1,286046999.6,P,0.2
1502878156.0,286046999.6,N,0.2
1502878175.8,286046999.6,N,0.2
1502878195.6,286046999.2,Y,0.0
1502878215.5,286046998.3,P,0.6
1502878235.3,286046998.3,N,0.6
1502878255.2,286047001.1,N,1.1
1502878275.9,286046998.6,N,1.1
1502878295.7,286046998.2,N,1.0
1502878315.6,286047000.8,N,1.1
1502878335.4,286047001.1,N,1.2
1502878355.2,286046999.4,N,1.2
1502878375.1,286046998.2,N,1.2
1502878376.0,286046998.2,N,1.2
1502878395.8,286047000.6,N,1.2
1502878415.7,286046998.5,N,1.2
1502878435.5,286047001.2,N,1.2
1502878455.3,286047001.1,N,1.2
1502878475.2,286046998.2,N,1.2
1502878495.0,286046998.8,N,1.2
1502878495.9,286046998.8,N,1.2
1502878515.8,286046999.0,N,1.2
1502878535.6,286046998.9,N,1.1
1502878555.4,286047000.5,N,1.1
1502878575.3,286047000.2,N,1.1
1502878595.1,286047000.3,N,1.1
1502878615.8,286047002.4,N,1.2
1502878635.7,286047002.0,N,1.3
1502878655.5,286047002.0,N,1.4
1502878675.4,286047002.6,N,1.4
1502878695.2,286047001.4,N,1.4
1502878715.0,286047001.3,N,1.4
1502878715.9,286047001.3,N,1.4
1502878735.8,286047004.2,N,1.6
1502878755.6,286047003.9,N,1.7
1502878775.5,286047003.7,N,1.8
1502878795.3,286047003.5,N,1.8
1502878815.1,286047003.8,N,1.9
1502878835.9,286047003.5,N,1.9
1502878855.7,286047002.9,N,1.9
1502878875.5,286047003.0,N,1.9
1502878895.4,286047005.5,N,2.1
1502878915.2,286047005.6,N,2.1
1502878935.1,286047006.0,N,2.2
1502878936.0,286047006.0,N,2.3
1502878955.8,286047005.6,N,2.3
1502878975.7,286047006.0,N,2.4
1502878995.5,286047003.3,N,2.4
1502879015.3,286047003.0,N,2.2
1502879035.2,286047006.0,N,2.2
1502879055.0,286047003.0,N,2.0
1502879055.9,286047003.0,N,1.9
1502879075.7,286047003.1,N,1.7
1502879095.6,286047002.9,N,1.7
1502879115.4,286047004.9,N,1.6
1502879135.3,286047005.3,Y,0.0
1502879155.1,286047002.3,P,0.6
1502879175.8,286047002.2,P,0.6
1502879195.7,286047004.0,P,0.8
1502879215.5,286047001.5,N,0.9
1502879265.4,286047004.0,E,nan
1502879275.3,286047002.8,N,0.0
1502879295.1,286046998.5,P,2.2
1502879315.9,286046998.2,N,2.1
1502879335.7,286046998.2,N,2.0
1502879355.6,286046999.0,N,1.8
1502879375.4,286046998.4,N,1.6
1502879395.2,286046998.1,N,1.6
1502879415.1,286046998.6,N,1.5
1502879416.0,286046998.6,N,1.4
1502879435.8,286046998.9,N,1.3
1502879455.7,286046999.3,N,1.3
1502879475.5,286046998.8,N,1.2
1502879495.3,286046999.4,N,1.2
1502879515.2,286046999.5,N,1.1
1502879535.0,286046998.6,N,1.1
1502879535.9,286046998.6,N,1.1
1502879555.8,286046998.8,N,1.0
1502879575.6,286046998.7,N,1.0
1502879595.4,286046998.2,N,1.0
1502879615.3,286047001.2,N,1.1
1502879635.1,286047000.8,N,1.1
1502879655.9,286046998.3,N,1.1
1502879675.7,286047001.1,N,1.2
1502879695.5,286047000.8,N,1.2
1502879715.4,286047000.0,N,1.2
1502879735.2,286047000.7,N,1.2
1502879755.1,286047000.7,N,1.2
1502879756.0,286047000.7,N,1.2
1502879775.8,286047000.7,N,1.2
1502879795.7,286047000.3,N,1.2
1502879815.5,286047001.0,N,1.1
1502879835.3,286047000.4,N,1.1
1502879855.2,286047000.8,N,1.1
1502879875.0,286046998.2,N,1.1
1502879875.9,286046998.2,N,1.1
1502879895.8,286047000.3,N,1.1
1502879915.6,286047000.3,N,1.0
1502879935.4,286046999.9,N,1.0
1502879955.3,286046999.9,N,1.0
1502879975.1,286047000.3,N,1.0
1502879995.8,286047002.6,N,1.1
1502880015.7,286047000.1,N,1.1
1502880035.5,286047002.4,N,1.2
1502880055.4,286046999.8,N,1.2
1502880075.2,286047002.2,N,1.2
1502880095.0,286047002.4,N,1.2
1502880095.9,286047002.4,N,1.2
1502880115.8,286046999.7,N,1.2
1502880135.6,286046999.8,N,1.1
1502880155.5,286047002.6,N,1.2
1502880175.3,286047002.4,N,1.2
1502880195.1,286047002.7,N,1.2
1502880215.9,286047000.1,N,1.2
1502880235.7,286047000.1,N,1.2
1502880255.6,286047002.8,N,1.3
1502880275.4,286047002.0,N,1.3
1502880295.2,286047001.9,N,1.3
1502880315.1,286047001.5,N,1.3
1502880316.0,286047001.5,N,1.3
1502880335.8,286047002.5,N,1.3
1502880355.7,286047004.3,Y,0.0
1502880375.5,286047002.6,P,0.8
1502880395.3,286047002.4,P,0.7
1502880415.2,286046999.8,N,1.1
1502880435.0,286047002.0,N,1.0
1502880435.9,286047002.0,N,1.0
1502880455.8,286047001.3,N,0.9
1502880475.6,286047001.8,N,0.8
1502880495.4,286047004.3,Y,0.0
1502880515.3,286046999.7,P,1.0
1502880535.1,286046999.9,N,0.9
1502880555.9,286046998.5,N,1.1
1502880575.7,286046998.5,N,1.1
1502880595.5,286046998.4,N,1.1
1502880615.4,286046998.7,N,1.1
1502880635.2,286046998.2,N,1.1
1502880655.0,286046998.5,N,1.0
1502880656.0,286046998.5,N,1.0
1502880675.8,286047001.2,N,1.1
1502880695.6,286046998.2,N,1.1
1502880715.5,286046998.5,N,1.1
1502880735.3,286046998.6,N,1.1
1502880755.1,286047000.6,N,1.1
1502880775.9,286047000.5,N,1.1
1502880795.7,286047000.7,N,1.1
1502880815.6,286046999.9,N,1.1
1502880835.4,286046999.9,N,1.1
1502880855.2,286047000.6,N,1.1
1502880875.1,286047000.9,N,1.1
1502880876.0,286047000.9,N,1.1
1502880895.8,286047000.8,N,1.1
1502880915.7,286047000.9,N,1.1
1502880935.5,286047000.6,N,1.1
1502880955.3,286047000.5,N,1.1
1502880975.2,286047001.0,N,1.1
1502880995.9,286047000.9,N,1.1
1502881015.7,286047000.7,N,1.1
1502881035.6,286047000.0,N,1.1
1502881055.4,286047000.5,N,1.0
1502881075.3,286047000.7,N,1.1
1502881095.1,286047000.3,N,1.1
1502881096.0,286047000.3,N,1.0
1502881115.8,286047000.7,N,1.0
1502881135.7,286047000.8,N,1.0
1502881155.5,286046998.3,N,1.0
1502881175.3,286047000.5,N,0.9
1502881195.2,286046999.7,N,0.9
